"2009-12-01 00:00:00",1463326,1.841,222.3,6.089,1.309,12.16,103.6541,8.63,9.77,20.17,0,110.1,13.39,9.41,184.3
"2009-12-01 00:00:30",1463327,0.879,223.1,4.69,0.715,10.54,103.6571,8.64,9.78,20.22,0,110.1,13.39,9.42,185.1
"2009-12-01 00:01:00",1463328,1.072,233.6,8.76,1.091,10.63,103.658,8.64,9.65,20.12,0,110.1,13.39,9.42,195.6
"2009-12-01 00:01:30",1463329,1.821,281.4,15.49,1.325,12.36,103.6475,8.61,9.8,20.67,0,110.1,13.39,9.39,243.4
"2009-12-01 00:02:00",1463330,1.657,293.1,6.839,1.294,11.29,103.6264,8.56,9.77,20.91,0,110.1,13.39,9.34,255.1
"2009-12-01 00:02:30",1463331,0.516,297.7,5.108,0.028,9.12,103.6247,8.55,9.65,20.99,0,110.1,13.42,9.34,259.7
"2009-12-01 00:03:00",1463332,0.641,305.1,2.144,0.081,8.75,103.6216,8.55,9.55,20.94,0,110.1,13.42,9.33,267.1
"2009-12-01 00:03:30",1463333,0.699,301.3,1.427,0.032,8.98,103.6026,8.5,9.64,21.03,0,110.1,13.43,9.28,263.3
"2009-12-01 00:04:00",1463334,2.069,306.8,7.462,1.352,11.01,103.5908,8.47,9.58,21.22,0,110.1,13.39,9.25,268.8
"2009-12-01 00:04:30",1463335,0.653,299.4,1.732,0.036,8.69,103.5908,8.47,9.51,21.29,0,110.1,13.43,9.25,261.4
"2009-12-01 00:05:00",1463336,0.537,292.1,5.484,0.033,8.56,103.5894,8.46,9.49,21.36,0,110.1,13.43,9.25,254.1
"2009-12-01 00:05:30",1463337,0.437,264.2,12.76,0.079,9,103.5696,8.41,9.47,21.33,0,110.1,13.43,9.19,226.2
"2009-12-01 00:06:00",1463338,0.377,234.6,6.356,0.077,9.33,103.5569,8.38,9.46,21.1,0,110,13.43,9.16,196.6
"2009-12-01 00:06:30",1463339,1.074,225.4,4.671,1.055,11.12,103.5569,8.38,9.58,21,0,110.1,13.4,9.16,187.4
"2009-12-01 00:07:00",1463340,0.897,218.3,6.493,1.014,10.47,103.536,8.33,9.42,20.61,0,110.1,13.4,9.11,180.3
"2009-12-01 00:07:30",1463341,1.612,215.2,5.741,1.291,12.6,103.523,8.29,9.58,20.65,0,110.1,13.4,9.08,177.2
"2009-12-01 00:08:00",1463342,1.744,211.9,6.64,1.313,11.77,103.523,8.29,9.48,20.51,0,110.1,13.4,9.08,173.9
"2009-12-01 00:08:30",1463343,1.035,210.7,6.093,1.057,11.07,103.518,8.28,9.49,20.53,0,110.1,13.4,9.06,172.7
"2009-12-01 00:09:00",1463344,0.9,210.4,4.947,0.903,9.77,103.4932,8.22,9.34,20.41,0,110.1,13.39,9.00,172.4
"2009-12-01 00:09:30",1463345,0.521,214.8,2.873,0.012,8.85,103.4906,8.21,9.3,20.43,0,110.1,13.43,8.99,176.8
"2009-12-01 00:10:00",1463346,0.562,217.8,2.686,0.072,9.1,103.493,8.22,9.3,20.46,0,110.1,13.43,9.00,179.8
"2009-12-01 00:10:30",1463347,1.608,223.5,5.367,1.265,11,103.4751,8.17,9.28,20.45,0,110.1,13.4,8.95,185.5
"2009-12-01 00:11:00",1463348,1.41,225.5,7.949,1.265,11.47,103.4687,8.16,9.43,20.62,0,110,13.4,8.94,187.5
"2009-12-01 00:11:30",1463349,0.532,221.9,1.844,0.057,9.19,103.4725,8.17,9.23,20.51,0,110,13.43,8.95,183.9
"2009-12-01 00:12:00",1463350,0.592,221.9,1.029,0.012,9.26,103.4733,8.17,9.22,20.55,0,110,13.44,8.95,183.9
"2009-12-01 00:12:30",1463351,0.521,224,0.809,0.025,9.27,103.453,8.12,9.19,20.57,0,110,13.44,8.90,186.0
"2009-12-01 00:13:00",1463352,0.476,225.8,1.699,0.033,9.59,103.4547,8.12,9.22,20.66,0,110,13.45,8.90,187.8
"2009-12-01 00:13:30",1463353,1.444,235,6.189,1.25,11.89,103.4559,8.12,9.26,20.76,0,110,13.41,8.90,197.0
"2009-12-01 00:14:00",1463354,2.018,238.6,7.385,1.315,12.51,103.437,8.07,9.32,20.9,0,110,13.41,8.85,200.6
"2009-12-01 00:14:30",1463355,2.458,245.5,6.398,1.172,13.59,103.4229,8.04,9.3,20.96,0,110,13.41,8.82,207.5
"2009-12-01 00:15:00",1463356,0.699,241.7,3.448,0.79,9.82,103.4226,8.04,9.09,20.76,0,110,13.41,8.82,203.7
"2009-12-01 00:15:30",1463357,0.411,239,1.956,0.032,8.9,103.4206,8.03,9.08,20.79,0,110,13.44,8.81,201.0
"2009-12-01 00:16:00",1463358,0.378,244.7,3.06,0.005,8.8,103.4065,7.996,9.05,20.83,0,110,13.45,8.78,206.7
"2009-12-01 00:16:30",1463359,0.422,251.8,1.856,0.033,9.03,103.3895,7.953,9.02,20.84,0,110,13.45,8.73,213.8
"2009-12-01 00:17:00",1463360,0.39,253.2,0.604,0.023,9.3,103.3887,7.951,9.01,20.88,0,110,13.45,8.73,215.2
"2009-12-01 00:17:30",1463361,1.528,257.2,5.798,1.319,11.55,103.3867,7.946,9.15,21.08,0,110,13.41,8.73,219.2
"2009-12-01 00:18:00",1463362,0.589,250.4,3.137,0.485,9.46,103.3669,7.895,8.95,20.98,0,110,13.42,8.67,212.4
"2009-12-01 00:18:30",1463363,0.565,260.3,1.621,0.052,9.22,103.3548,7.864,8.95,21,0,110,13.45,8.64,222.3
"2009-12-01 00:19:00",1463364,0.745,264.5,3.151,0.039,9.27,103.3548,7.864,8.93,21.02,0,110,13.45,8.64,226.5
"2009-12-01 00:19:30",1463365,0.839,276.1,3.174,0.057,9.57,103.3548,7.864,8.89,21.2,0,110,13.45,8.64,238.1
"2009-12-01 00:20:00",1463366,2.033,288.2,8.82,1.337,11.5,103.3548,7.864,8.99,21.54,0,110,13.42,8.64,250.2
"2009-12-01 00:20:30",1463367,2.863,309.2,11.46,1.328,12.9,103.3554,7.866,9.16,22.2,0,110,13.42,8.65,271.2
"2009-12-01 00:21:00",1463368,3.515,321.4,6.406,1.12,13.19,103.3548,7.864,9.13,22.59,0,110,13.42,8.64,283.4
"2009-12-01 00:21:30",1463369,2.594,321.4,5.196,1.051,9.55,103.3548,7.864,8.9,22.44,0,110,13.42,8.64,283.4
"2009-12-01 00:22:00",1463370,2.652,320.3,5.049,1.148,9.24,103.3548,7.864,8.88,22.6,0,110,13.42,8.64,282.3
"2009-12-01 00:22:30",1463371,2.264,316.9,3.969,0.923,9.89,103.3548,7.864,9.03,23.23,0,110,13.42,8.64,278.9
"2009-12-01 00:23:00",1463372,2.108,307.1,7.775,1.207,9.88,103.3415,7.83,8.86,22.86,0,110,13.42,8.61,269.1
"2009-12-01 00:23:30",1463373,1.239,293.9,3.602,0.051,9.06,103.3241,7.786,8.87,22.45,0,110,13.45,8.57,255.9
"2009-12-01 00:24:00",1463374,1.022,290,1.433,0.066,9.29,103.3279,7.796,8.86,22.19,0,110,13.45,8.57,252.0
"2009-12-01 00:24:30",1463375,1.144,291,1.883,0.063,9.47,103.3311,7.804,8.83,22.05,0,110,13.45,8.58,253.0
"2009-12-01 00:25:00",1463376,1.919,300.3,9.41,1.085,10.97,103.3346,7.813,8.98,22.11,0,110,13.42,8.59,262.3
"2009-12-01 00:25:30",1463377,3.99,321.9,3.944,0.671,14.4,103.3421,7.832,9.13,22.67,0,110,13.42,8.61,283.9
"2009-12-01 00:26:00",1463378,3.754,328,10.88,1.122,12.83,103.3623,7.883,9.01,22.83,0,110,13.42,8.66,290.0
"2009-12-01 00:26:30",1463379,2.335,334.9,1.467,0.121,8.48,103.3468,7.844,8.84,22.87,0,110,13.45,8.62,296.9
"2009-12-01 00:27:00",1463380,3.565,340.2,5.893,1.284,10.38,103.3472,7.845,8.99,23.53,0,110,13.41,8.62,302.2
"2009-12-01 00:27:30",1463381,2.928,333.3,4.644,0.91,8.81,103.3513,7.855,8.9,24.05,0,110,13.41,8.63,295.3
"2009-12-01 00:28:00",1463382,2.395,332.2,0.379,0.102,8.55,103.3545,7.864,8.83,24.05,0,110,13.45,8.64,294.2
"2009-12-01 00:28:30",1463383,2.057,330.6,1.124,0.118,8.74,103.3553,7.866,8.82,23.93,0,110,13.45,8.65,292.6
"2009-12-01 00:29:00",1463384,1.975,329.9,4.089,0.66,9.63,103.3559,7.867,8.95,23.85,0,109.9,13.42,8.65,291.9
"2009-12-01 00:29:30",1463385,3.537,334.2,7.023,1.213,12.76,103.3553,7.866,9.04,23.68,0,110,13.42,8.65,296.2
"2009-12-01 00:30:00",1463386,3.472,324,6.602,1.119,12.85,103.3554,7.866,8.97,23.43,0,110,13.42,8.65,286.0
"2009-12-01 00:30:30",1463387,2.453,318.7,6.59,1.324,10.87,103.3494,7.851,8.82,23.07,0,110,13.42,8.63,280.7
"2009-12-01 00:31:00",1463388,1.32,313,0.805,0.034,8.95,103.341,7.829,8.89,22.98,0,110,13.46,8.61,275.0
"2009-12-01 00:31:30",1463389,1.672,316.7,5.954,1.009,9.95,103.3246,7.787,8.94,22.86,0,110,13.42,8.57,278.7
"2009-12-01 00:32:00",1463390,2.009,319.4,5.33,1.169,9.93,103.322,7.781,8.83,22.75,0,110,13.42,8.56,281.4
"2009-12-01 00:32:30",1463391,1.788,323.8,5.644,1.07,10.14,103.322,7.781,8.91,22.92,0,110,13.42,8.56,285.8
"2009-12-01 00:33:00",1463392,1.172,324,1.091,0.035,8.79,103.322,7.781,8.78,22.87,0,110,13.46,8.56,286.0
"2009-12-01 00:33:30",1463393,1.037,324,1.734,0.076,9.03,103.322,7.781,8.77,22.86,0,110,13.46,8.56,286.0
"2009-12-01 00:34:00",1463394,0.97,325.9,1.9,0.031,9.44,103.322,7.781,8.82,22.88,0,110,13.46,8.56,287.9
"2009-12-01 00:34:30",1463395,2.673,334,4.612,1.25,13.1,103.322,7.781,9.02,23.02,0,110,13.43,8.56,296.0
"2009-12-01 00:35:00",1463396,2.164,327.3,6.67,1.285,11.71,103.3218,7.78,8.88,22.83,0,110,13.43,8.56,289.3
"2009-12-01 00:35:30",1463397,1.311,316.5,5.632,1.091,10.28,103.3195,7.774,8.76,22.49,0,110,13.43,8.55,278.5
"2009-12-01 00:36:00",1463398,1.1,311.9,6.226,1.093,9.69,103.315,7.763,8.8,22.22,0,110,13.43,8.54,273.9
"2009-12-01 00:36:30",1463399,1.481,311.9,5.456,1.272,11.48,103.3119,7.755,8.86,22.04,0,110,13.43,8.53,273.9
"2009-12-01 00:37:00",1463400,0.335,306.5,1.837,0.043,9.19,103.3025,7.731,8.74,21.71,0,110,13.46,8.51,268.5
"2009-12-01 00:37:30",1463401,0.554,307.8,3.282,0.709,9.84,103.2938,7.708,8.9,21.75,0,110,13.43,8.49,269.8
"2009-12-01 00:38:00",1463402,1.454,302.4,6.935,1.333,10.91,103.2881,7.694,8.76,21.58,0,110,13.43,8.47,264.4
"2009-12-01 00:38:30",1463403,0.364,289.2,2.308,0.005,9.15,103.2881,7.694,8.74,21.57,0,110,13.47,8.47,251.2
"2009-12-01 00:39:00",1463404,0.313,275.6,6.376,0.03,8.88,103.2881,7.694,8.74,21.44,0,110,13.47,8.47,237.6
"2009-12-01 00:39:30",1463405,0.522,264.3,1.944,0.05,8.91,103.2992,7.722,8.73,21.42,0,110,13.47,8.50,226.3
"2009-12-01 00:40:00",1463406,0.61,273.2,2.098,0.057,9.25,103.3212,7.778,8.72,21.48,0,110,13.47,8.56,235.2
"2009-12-01 00:40:30",1463407,0.862,277.2,2.677,0.481,9.63,103.3229,7.783,8.75,21.59,0,110,13.44,8.56,239.2
"2009-12-01 00:41:00",1463408,2.774,290.3,5.838,1.13,12.84,103.3244,7.787,8.89,21.87,0,110,13.43,8.57,252.3
"2009-12-01 00:41:30",1463409,2.087,286,8.92,1.272,12.83,103.3247,7.787,8.93,22.06,0,110,13.43,8.57,248.0
"2009-12-01 00:42:00",1463410,0.729,277.9,3.661,0.064,9.67,103.3247,7.787,8.74,22.02,0,110,13.47,8.57,239.9
"2009-12-01 00:42:30",1463411,2.036,282.7,7.556,1.281,11.65,103.3154,7.764,8.91,22.01,0,110,13.43,8.54,244.7
"2009-12-01 00:43:00",1463412,0.638,273.7,3.198,0.059,9.14,103.2974,7.718,8.76,21.64,0,110,13.47,8.50,235.7
"2009-12-01 00:43:30",1463413,0.438,260.3,4.792,0.054,9.11,103.2972,7.717,8.79,21.59,0,110,13.47,8.50,222.3
"2009-12-01 00:44:00",1463414,1.54,256.8,6.928,1.303,11.44,103.2989,7.722,8.82,21.54,0,110,13.43,8.50,218.8
"2009-12-01 00:44:30",1463415,0.437,256.7,5.509,0.087,8.62,103.301,7.727,8.73,21.41,0,110,13.47,8.51,218.7
"2009-12-01 00:45:00",1463416,0.444,250.1,5.927,0.025,8.42,103.3175,7.769,8.73,21.39,0,110,13.47,8.55,212.1
"2009-12-01 00:45:30",1463417,0.615,260.9,4.215,0.086,8.51,103.3501,7.852,8.74,21.43,0,110,13.48,8.63,222.9
"2009-12-01 00:46:00",1463418,0.576,275.1,3.556,0.093,8.81,103.3776,7.923,8.76,21.59,0,110,13.48,8.70,237.1
"2009-12-01 00:46:30",1463419,0.553,278.6,3.113,0.069,9.13,103.3889,7.952,8.79,21.9,0,110,13.48,8.73,240.6
"2009-12-01 00:47:00",1463420,0.727,279.2,1.141,0.033,9.49,103.3879,7.949,8.89,22,0,110,13.48,8.73,241.2
"2009-12-01 00:47:30",1463421,1.9,286.6,7.37,1.278,11.76,103.3846,7.94,8.88,21.98,0,110,13.45,8.72,248.6
"2009-12-01 00:48:00",1463422,2.519,286.8,6.202,1.288,13.12,103.3878,7.949,9.04,22.12,0,110,13.45,8.73,248.8
"2009-12-01 00:48:30",1463423,2.417,272.8,12.73,1.292,12.63,103.381,7.931,8.95,21.93,0,109.9,13.45,8.71,234.8
"2009-12-01 00:49:00",1463424,1.691,262.7,6.278,1.212,11.85,103.363,7.885,8.99,21.63,0,110,13.45,8.66,224.7
"2009-12-01 00:49:30",1463425,1.666,245.7,8.1,1.322,11.11,103.3559,7.867,8.89,21.45,0,110,13.45,8.65,207.7
"2009-12-01 00:50:00",1463426,1.014,227.4,6.518,0.99,9.58,103.3568,7.869,8.97,21.45,0,109.9,13.45,8.65,189.4
"2009-12-01 00:50:30",1463427,0.504,222.2,2.419,0.057,8,103.3565,7.869,8.81,21.28,0,110,13.48,8.65,184.2
"2009-12-01 00:51:00",1463428,0.402,224.3,2.473,0.043,8.03,103.3551,7.865,8.79,21.25,0,109.9,13.48,8.64,186.3
"2009-12-01 00:51:30",1463429,0.447,221.4,2.651,0.033,8.21,103.3452,7.84,8.79,21.24,0,110,13.48,8.62,183.4
"2009-12-01 00:52:00",1463430,0.424,222.3,6.625,0.043,8.56,103.3263,7.791,8.78,21.26,0,110,13.49,8.57,184.3
"2009-12-01 00:52:30",1463431,0.424,229.5,2.093,0.022,9.06,103.3232,7.783,8.76,21.27,0,110,13.49,8.56,191.5
"2009-12-01 00:53:00",1463432,0.429,229.8,1.044,0.017,9.54,103.3232,7.783,8.77,21.29,0,110,13.49,8.56,191.8
"2009-12-01 00:53:30",1463433,0.705,230.7,3.39,0.811,10.6,103.3232,7.783,8.89,21.43,0,110,13.45,8.56,192.7
"2009-12-01 00:54:00",1463434,1.255,227.7,6.085,1.243,11.22,103.3161,7.765,8.8,21.38,0,110,13.45,8.54,189.7
"2009-12-01 00:54:30",1463435,1.55,229.8,7.051,1.297,12.58,103.3056,7.739,8.91,21.53,0,110,13.45,8.52,191.8
"2009-12-01 00:55:00",1463436,1.413,226.2,7.431,1.231,11.23,103.2893,7.697,8.8,21.42,0,110,13.45,8.48,188.2
"2009-12-01 00:55:30",1463437,1.593,217.1,7.235,1.294,11.84,103.2893,7.697,8.88,21.5,0,110,13.45,8.48,179.1
"2009-12-01 00:56:00",1463438,0.519,210,7.469,0.676,9.62,103.2893,7.697,8.7,21.35,0,110,13.45,8.48,172.0
"2009-12-01 00:56:30",1463439,0.726,228.1,3.897,0.907,8.96,103.2893,7.697,8.78,21.45,0,110,13.46,8.48,190.1
"2009-12-01 00:57:00",1463440,1.518,240.1,5.96,1.251,10.51,103.2771,7.666,8.75,21.43,0,110,13.45,8.44,202.1
"2009-12-01 00:57:30",1463441,0.372,231.5,1.401,0.036,8.09,103.2587,7.619,8.68,21.37,0,110,13.48,8.40,193.5
"2009-12-01 00:58:00",1463442,0.397,229.9,4.801,0.041,8.17,103.2553,7.61,8.67,21.35,0,110,13.48,8.39,191.9
"2009-12-01 00:58:30",1463443,0.33,239.6,8.03,0.059,8.53,103.2553,7.61,8.65,21.33,0,110,13.49,8.39,201.6
"2009-12-01 00:59:00",1463444,0.278,253.9,3.772,0.041,8.92,103.2553,7.61,8.64,21.31,0,109.9,13.49,8.39,215.9
"2009-12-01 00:59:30",1463445,0.354,262.4,3.331,0.055,9.54,103.2534,7.605,8.62,21.33,0,109.9,13.49,8.38,224.4
"2009-12-01 01:00:00",1463446,0.334,276.3,10.14,0.041,9.85,103.2356,7.56,8.61,21.34,0,110,13.49,8.34,238.3
"2009-12-01 01:00:30",1463447,1.9,278.3,8.3,1.312,12.36,103.2217,7.524,8.72,21.4,0,109.9,13.46,8.30,240.3
"2009-12-01 01:01:00",1463448,1.086,277.8,1.005,0.068,10.81,103.2214,7.523,8.65,21.06,0,109.9,13.49,8.30,239.8
"2009-12-01 01:01:30",1463449,2.305,281.5,6.674,1.341,12.68,103.2214,7.523,8.74,20.99,0,109.9,13.46,8.30,243.5
"2009-12-01 01:02:00",1463450,3.269,287.6,6.202,1.126,14.05,103.2211,7.523,8.78,20.88,0,109.9,13.46,8.30,249.6
"2009-12-01 01:02:30",1463451,2.645,287.7,7.807,1.326,12.51,103.218,7.515,8.72,20.65,0,109.9,13.46,8.29,249.7
"2009-12-01 01:03:00",1463452,1.754,289.3,3.882,1.099,10.08,103.2124,7.5,8.58,20.43,0,109.9,13.46,8.28,251.3
"2009-12-01 01:03:30",1463453,1.111,288.6,2.445,0.035,8.73,103.2062,7.484,8.53,20.34,0,109.9,13.49,8.26,250.6
"2009-12-01 01:04:00",1463454,1.169,298.2,2.658,0.067,8.59,103.2031,7.477,8.51,20.3,0,109.9,13.5,8.25,260.2
"2009-12-01 01:04:30",1463455,1.151,298.7,2.569,0.107,8.94,103.2031,7.477,8.51,20.29,0,109.9,13.5,8.25,260.7
"2009-12-01 01:05:00",1463456,1.285,303.9,2.745,0.054,9.45,103.2036,7.478,8.51,20.32,0,109.9,13.5,8.26,265.9
"2009-12-01 01:05:30",1463457,1.345,307.9,1.336,0.025,9.95,103.2028,7.476,8.55,20.38,0,109.9,13.5,8.25,269.9
"2009-12-01 01:06:00",1463458,2.173,306.9,10.03,1.248,12.23,103.1977,7.463,8.62,20.48,0,109.9,13.47,8.24,268.9
"2009-12-01 01:06:30",1463459,1.188,299.6,2.723,0.033,10.82,103.1926,7.45,8.59,20.51,0,109.9,13.5,8.23,261.6
"2009-12-01 01:07:00",1463460,1.553,296.5,6.268,0.931,11.51,103.1898,7.443,8.55,20.44,0,109.9,13.47,8.22,258.5
"2009-12-01 01:07:30",1463461,2.798,307.8,7.266,1.273,13.15,103.1901,7.443,8.71,20.62,0,109.9,13.47,8.22,269.8
"2009-12-01 01:08:00",1463462,2.963,309.3,7.151,1.265,13.72,103.1889,7.44,8.75,20.67,0,109.9,13.47,8.22,271.3
"2009-12-01 01:08:30",1463463,1.758,294,6.988,0.947,9.99,103.1875,7.437,8.49,20.44,0,109.9,13.47,8.21,256.0
"2009-12-01 01:09:00",1463464,1.444,290.1,1.739,0.057,8.79,103.1884,7.439,8.49,20.45,0,109.9,13.5,8.22,252.1
"2009-12-01 01:09:30",1463465,1.473,289.1,1.51,0.048,8.68,103.1895,7.442,8.49,20.52,0,109.9,13.5,8.22,251.1
"2009-12-01 01:10:00",1463466,1.397,288,1.48,0.059,8.89,103.1926,7.45,8.49,20.56,0,109.9,13.5,8.23,250.0
"2009-12-01 01:10:30",1463467,1.775,289.5,7.063,0.898,10.27,103.2008,7.471,8.52,20.62,0,109.9,13.47,8.25,251.5
"2009-12-01 01:11:00",1463468,2.011,295.4,5.59,1.047,10.82,103.2045,7.48,8.56,20.69,0,109.9,13.47,8.26,257.4
"2009-12-01 01:11:30",1463469,2.584,299.5,5.692,1.285,12.29,103.2107,7.496,8.56,20.66,0,109.9,13.47,8.27,261.5
"2009-12-01 01:12:00",1463470,1.377,294.6,2.203,0.072,10.17,103.2195,7.518,8.52,20.63,0,109.9,13.5,8.30,256.6
"2009-12-01 01:12:30",1463471,1.634,291,2.433,0.488,10.21,103.2214,7.523,8.56,20.67,0,109.9,13.47,8.30,253.0
"2009-12-01 01:13:00",1463472,3.742,307.2,4.927,1.021,14.52,103.222,7.525,8.87,20.98,0,109.9,13.46,8.30,269.2
"2009-12-01 01:13:30",1463473,2.894,305.9,7.011,1.362,12.98,103.2217,7.524,8.86,20.99,0,109.9,13.46,8.30,267.9
"2009-12-01 01:14:00",1463474,1.635,301.4,3.758,0.787,9.54,103.2223,7.526,8.56,20.67,0,109.9,13.46,8.30,263.4
"2009-12-01 01:14:30",1463475,1.116,299.5,2.682,0.108,8.76,103.2404,7.572,8.57,20.68,0,109.9,13.49,8.35,261.5
"2009-12-01 01:15:00",1463476,0.999,299.2,1.969,0.043,8.9,103.2531,7.604,8.58,20.67,0,109.9,13.5,8.38,261.2
"2009-12-01 01:15:30",1463477,1,296.9,1.636,0.091,9.18,103.2559,7.612,8.6,20.66,0,109.9,13.49,8.39,258.9
"2009-12-01 01:16:00",1463478,2.22,305.2,8.54,1.267,11.53,103.2574,7.615,8.75,20.78,0,109.9,13.46,8.39,267.2
"2009-12-01 01:16:30",1463479,2.11,308.2,6.668,0.988,10.95,103.2583,7.618,8.74,20.74,0,109.9,13.46,8.40,270.2
"2009-12-01 01:17:00",1463480,2.105,309.2,5.027,0.775,10.5,103.2571,7.615,8.66,20.57,0,109.9,13.46,8.39,271.2
"2009-12-01 01:17:30",1463481,1.814,311.4,1.148,0.082,10,103.2591,7.62,8.63,20.51,0,109.9,13.5,8.40,273.4
"2009-12-01 01:18:00",1463482,2.803,314,7.352,1.241,12.2,103.2747,7.66,8.83,20.67,0,109.9,13.47,8.44,276.0
"2009-12-01 01:18:30",1463483,3.711,316.5,6.793,1.006,14.25,103.2916,7.703,8.95,20.76,0,109.9,13.47,8.48,278.5
"2009-12-01 01:19:00",1463484,2.238,310.5,3.962,1.155,11.64,103.2948,7.711,8.79,20.6,0,109.9,13.47,8.49,272.5
"2009-12-01 01:19:30",1463485,1.407,301.2,4.195,0.106,9.04,103.2927,7.706,8.7,20.46,0,109.9,13.5,8.48,263.2
"2009-12-01 01:20:00",1463486,1.279,291.9,2.984,0.121,8.82,103.2976,7.718,8.71,20.45,0,109.9,13.5,8.50,253.9
"2009-12-01 01:20:30",1463487,1.423,294.3,4.741,0.119,9.21,103.3186,7.772,8.75,20.44,0,109.9,13.5,8.55,256.3
"2009-12-01 01:21:00",1463488,2.47,294.4,6.276,1.26,11.32,103.3273,7.794,8.85,20.53,0,109.9,13.47,8.57,256.4
"2009-12-01 01:21:30",1463489,2.437,298.1,8.85,1.305,11.98,103.3302,7.801,8.9,20.52,0,109.9,13.47,8.58,260.1
"2009-12-01 01:22:00",1463490,1.418,298.1,3.005,0.057,9.77,103.3316,7.805,8.77,20.4,0,109.9,13.51,8.58,260.1
"2009-12-01 01:22:30",1463491,1.683,306.4,2.609,0.096,9.9,103.3333,7.809,8.8,20.38,0,109.9,13.51,8.59,268.4
"2009-12-01 01:23:00",1463492,2.117,307.8,3.794,1.03,11.59,103.3528,7.859,8.96,20.53,0,109.9,13.47,8.64,269.8
"2009-12-01 01:23:30",1463493,3.841,311.9,6.142,0.535,14.54,103.3638,7.887,9.07,20.62,0,109.9,13.47,8.67,273.9
"2009-12-01 01:24:00",1463494,2.203,296.6,6.66,1.254,11.71,103.3673,7.896,9,20.52,0,109.9,13.47,8.68,258.6
"2009-12-01 01:24:30",1463495,1.43,292.6,2.996,0.077,9.06,103.365,7.89,8.86,20.32,0,109.9,13.5,8.67,254.6
"2009-12-01 01:25:00",1463496,1.517,287.9,1.862,0.059,8.72,103.3729,7.911,8.88,20.33,0,109.9,13.5,8.69,249.9
"2009-12-01 01:25:30",1463497,1.478,286.3,1.904,0.051,8.97,103.3932,7.963,8.9,20.32,0,109.9,13.51,8.74,248.3
"2009-12-01 01:26:00",1463498,2.061,284.3,7.751,1.026,11.18,103.3986,7.976,9.06,20.44,0,109.9,13.47,8.76,246.3
"2009-12-01 01:26:30",1463499,1.933,277.7,4.394,0.879,10.66,103.3983,7.976,8.95,20.31,0,109.9,13.47,8.76,239.7
"2009-12-01 01:27:00",1463500,1.683,275.6,1.17,0.08,10.08,103.4006,7.981,8.95,20.26,0,109.9,13.51,8.76,237.6
"2009-12-01 01:27:30",1463501,1.905,273.4,2.187,0.102,9.84,103.4015,7.984,8.96,20.21,0,109.9,13.51,8.76,235.4
"2009-12-01 01:28:00",1463502,2.63,281.2,6.806,1.218,11.53,103.4238,8.04,9.14,20.31,0,109.9,13.47,8.82,243.2
"2009-12-01 01:28:30",1463503,3.442,290,9.49,1.294,13.39,103.4331,8.06,9.26,20.3,0,109.9,13.47,8.84,252.0
"2009-12-01 01:29:00",1463504,3.385,279.2,7.148,1.304,12.77,103.4357,8.07,9.18,20.2,0,109.9,13.47,8.85,241.2
"2009-12-01 01:29:30",1463505,2.851,282.8,9.29,1.275,11.13,103.4372,8.07,9.15,20.16,0,109.9,13.47,8.86,244.8
"2009-12-01 01:30:00",1463506,1.809,281.5,2.598,0.069,8.83,103.4345,8.07,9.03,20.01,0,109.9,13.5,8.85,243.5
"2009-12-01 01:30:30",1463507,1.992,278.9,4.736,0.155,9.04,103.4518,8.11,9.11,20.05,0,109.9,13.5,8.89,240.9
"2009-12-01 01:31:00",1463508,3.315,278.5,6.601,1.306,11.61,103.4656,8.15,9.13,20.02,0,110,13.46,8.93,240.5
"2009-12-01 01:31:30",1463509,3.225,279,6.383,1.305,12.05,103.4693,8.16,9.24,20.12,0,109.9,13.47,8.94,241.0
"2009-12-01 01:32:00",1463510,2.182,277.9,3.419,0.09,9.91,103.4679,8.15,9.1,19.94,0,109.9,13.5,8.93,239.9
"2009-12-01 01:32:30",1463511,2.404,278.9,2.705,0.196,9.94,103.4795,8.18,9.2,19.99,0,109.9,13.5,8.96,240.9
"2009-12-01 01:33:00",1463512,4.064,288,5.082,1.275,13.73,103.4951,8.22,9.39,20.12,0,109.9,13.46,9.00,250.0
"2009-12-01 01:33:30",1463513,3.614,283.6,9.03,1.285,12.14,103.5021,8.24,9.37,20.06,0,109.9,13.47,9.02,245.6
"2009-12-01 01:34:00",1463514,2.593,270.7,5.111,1.048,10.56,103.5029,8.24,9.36,20.02,0,109.9,13.47,9.02,232.7
"2009-12-01 01:34:30",1463515,3.19,275.5,5.085,1.324,10.13,103.5026,8.24,9.2,19.81,0,109.9,13.47,9.02,237.5
"2009-12-01 01:35:00",1463516,2.751,280.6,4.883,0.163,8.97,103.5216,8.29,9.22,19.75,0,109.9,13.5,9.07,242.6
"2009-12-01 01:35:30",1463517,4.06,290.4,6.499,1.144,11.24,103.5375,8.33,9.38,19.8,0,109.9,13.47,9.11,252.4
"2009-12-01 01:36:00",1463518,3.514,285.7,7.183,1.106,11.63,103.5351,8.33,9.4,19.76,0,109.9,13.47,9.11,247.7
"2009-12-01 01:36:30",1463519,3.221,291.3,5.795,0.542,9.88,103.5388,8.33,9.29,19.59,0,109.9,13.47,9.12,253.3
"2009-12-01 01:37:00",1463520,4.496,287.5,5.833,1.217,11.75,103.5634,8.4,9.35,19.56,0,109.9,13.47,9.18,249.5
"2009-12-01 01:37:30",1463521,5.326,295.3,8.57,1.253,13.16,103.5681,8.41,9.56,19.67,0,109.9,13.47,9.19,257.3
"2009-12-01 01:38:00",1463522,5.118,286.8,8.11,1.259,12.97,103.5684,8.41,9.44,19.45,0,109.9,13.47,9.19,248.8
"2009-12-01 01:38:30",1463523,4.273,290.8,9.71,1.243,11.33,103.5769,8.43,9.5,19.48,0,109.9,13.47,9.21,252.8
"2009-12-01 01:39:00",1463524,2.545,282.5,5.759,0.191,9.15,103.5995,8.49,9.38,19.28,0,109.9,13.51,9.27,244.5
"2009-12-01 01:39:30",1463525,3.461,288.9,8.32,1.228,11.26,103.602,8.5,9.55,19.41,0,109.9,13.47,9.28,250.9
"2009-12-01 01:40:00",1463526,2.904,286,6.234,0.981,10.44,103.6009,8.49,9.54,19.33,0,109.9,13.47,9.28,248.0
"2009-12-01 01:40:30",1463527,2.104,281.9,11.94,0.285,9.65,103.6094,8.52,9.44,19.2,0,109.9,13.51,9.30,243.9
"2009-12-01 01:41:00",1463528,2.6,287.9,12.34,0.953,10.81,103.6257,8.56,9.62,19.41,0,109.9,13.47,9.34,249.9
"2009-12-01 01:41:30",1463529,3.676,306.1,7.302,1.214,11.4,103.636,8.58,9.52,19.21,0,109.9,13.47,9.37,268.1
"2009-12-01 01:42:00",1463530,4.195,306.3,4.982,1.025,10.96,103.6333,8.58,9.61,18.93,0,109.9,13.47,9.36,268.3
"2009-12-01 01:42:30",1463531,4.787,314,7.69,1.339,12.58,103.636,8.58,9.78,18.86,0,109.9,13.47,9.37,276.0
"2009-12-01 01:43:00",1463532,3.999,310.1,4.769,1.074,10.35,103.6336,8.58,9.63,18.61,0,109.9,13.47,9.36,272.1
"2009-12-01 01:43:30",1463533,4.635,313.8,6.78,1.304,11.92,103.6344,8.58,9.65,18.57,0,110,13.47,9.36,275.8
"2009-12-01 01:44:00",1463534,4.465,317.3,6.112,1.2,11.56,103.6477,8.61,9.69,18.61,0,110,13.47,9.40,279.3
"2009-12-01 01:44:30",1463535,3.211,314,0.984,0.12,9.68,103.6619,8.65,9.56,18.45,0,110,13.48,9.43,276.0
"2009-12-01 01:45:00",1463536,3.78,320,5.532,1.193,11.54,103.6629,8.65,9.74,18.58,0,109.9,13.47,9.43,282.0
"2009-12-01 01:45:30",1463537,3.667,317.3,6.001,1.022,10.44,103.6661,8.66,9.65,18.5,0,110,13.47,9.44,279.3
"2009-12-01 01:46:00",1463538,3.472,317.9,5.977,0.958,11.42,103.6655,8.66,9.83,18.65,0,110,13.47,9.44,279.9
"2009-12-01 01:46:30",1463539,4.791,326.2,6.078,1.055,13.5,103.6655,8.66,9.78,18.57,0,110,13.46,9.44,288.2
"2009-12-01 01:47:00",1463540,3.762,324.7,6.922,1.3,12.19,103.6643,8.66,9.77,18.51,0,110,13.46,9.44,286.7
"2009-12-01 01:47:30",1463541,2.329,320.9,1.599,0.066,10.05,103.6634,8.65,9.72,18.48,0,110,13.5,9.44,282.9
"2009-12-01 01:48:00",1463542,3.321,324.1,7.542,1.212,11.4,103.6631,8.65,9.69,18.47,0,110,13.46,9.43,286.1
"2009-12-01 01:48:30",1463543,2.578,322,4.947,0.92,10.55,103.6634,8.65,9.75,18.56,0,110,13.46,9.44,284.0
"2009-12-01 01:49:00",1463544,2.156,317.2,1.704,0.039,9.8,103.6628,8.65,9.64,18.43,0,110,13.5,9.43,279.2
"2009-12-01 01:49:30",1463545,2.116,316.7,1.456,0.276,10.13,103.6628,8.65,9.71,18.47,0,110,13.46,9.43,278.7
"2009-12-01 01:50:00",1463546,3.362,320.7,7.863,1.282,12.44,103.6628,8.65,9.75,18.48,0,110,13.46,9.43,282.7
"2009-12-01 01:50:30",1463547,2.783,310.9,4.252,0.999,10.64,103.6628,8.65,9.65,18.35,0,110,13.47,9.43,272.9